Reading, PA

3:11 AM EDT on October 15, 2019 (GMT -0400)
Reading Regional-Spaatz

Weather History for KRDG - August, 2019

Change the Weather History Date:

Sunday, August 4, 2019

  Actual Average Record
Temperature  
Mean Temperature 79 °F 74 °F  
Max Temperature 89 °F 85 °F 98 °F (1944)
Min Temperature 68 °F 64 °F 51 °F (1912)
Degree Days  
Heating Degree Days 0 0  
Month to date heating degree days 0 0  
Since 1 June heating degree days 16 25  
Since 1 July heating degree days 0 1  
Cooling Degree Days 14 9  
Month to date cooling degree days 52 36  
Year to date cooling degree days 790 588  
Since 1 June cooling degree days 685 528  
Growing Degree Days 29 (Base 50)    
Moisture  
Dew Point 68 °F    
Average Humidity 70    
Maximum Humidity 100    
Minimum Humidity 40    
Precipitation  
Precipitation T in 0.12 in 2.08 in (2018)
Month to date precipitation 0.21 0.48  
Year to date precipitation 38.50 25.80  
Sea Level Pressure  
Sea Level Pressure 29.93 in    
Wind  
Wind Speed 4 mph (NW)    
Max Wind Speed 12 mph    
Max Gust Speed 15 mph    
Visibility 10 miles    
Events Thunderstorm    
T = Trace of Precipitation, MM = Missing Value Source: NWS Daily Summary

Daily Weather History Graph

Daily Weather History Graph

Search for Another Location

Airport or City:

Astronomy

Aug. 04, 2019 Rise Set
Actual Time 6:03 AM EDT 8:15 PM EDT
Civil Twilight 5:33 AM EDT 8:45 PM EDT
Nautical Twilight 4:56 AM EDT 9:22 PM EDT
Astronomical Twilight 4:15 AM EDT 10:03 PM EDT
Moon 10:07 AM EDT (8/4) 10:52 PM EDT (8/4)
Length of Visible Light 15h 11m
Length of Day
14h 11m
Waxing Crescent, 18% of the Moon is Illuminated
Aug 4
Waxing Crescent
Aug 7
First Quarter
Aug 15
Full
Aug 23
Last Quarter
Aug 30
New

Hourly Weather History & Observations

Time (EDT) Temp. Heat Index Dew Point Humidity Pressure Visibility Wind Dir Wind Speed Gust Speed Precip Events Conditions
12:54 AM 75.0 °F - 71.1 °F 87% 29.96 in 10.0 mi NNW 5.8 mph - 0.00 in   Overcast
1:15 AM 73.9 °F - 71.1 °F 91% 29.96 in 10.0 mi NNW 4.6 mph - N/A Thunderstorm Overcast
1:30 AM 73.9 °F - 71.1 °F 91% 29.95 in 10.0 mi Calm Calm - N/A   Mostly Cloudy
1:54 AM 73.0 °F - 71.1 °F 93% 29.96 in 10.0 mi Calm Calm - N/A   Scattered Clouds
2:54 AM 72.0 °F - 70.0 °F 93% 29.95 in 10.0 mi NNE 8.1 mph - N/A   Mostly Cloudy
3:54 AM 71.1 °F - 69.1 °F 93% 29.93 in 10.0 mi WNW 3.5 mph - N/A   Scattered Clouds
4:54 AM 70.0 °F - 69.1 °F 97% 29.93 in 10.0 mi NW 3.5 mph - N/A   Clear
5:54 AM 69.1 °F - 69.1 °F 100% 29.93 in 10.0 mi Calm Calm - N/A   Clear
6:54 AM 70.0 °F - 69.1 °F 97% 29.94 in 10.0 mi Calm Calm - N/A   Clear
7:54 AM 72.0 °F - 71.1 °F 97% 29.94 in 10.0 mi Calm Calm - N/A   Clear
8:54 AM 75.9 °F - 71.1 °F 85% 29.96 in 10.0 mi Calm Calm - N/A   Clear
9:54 AM 80.1 °F 83.6 °F 71.1 °F 74% 29.96 in 10.0 mi Variable 3.5 mph - N/A   Clear
10:54 AM 82.9 °F 85.8 °F 68.0 °F 60% 29.96 in 10.0 mi NNW 6.9 mph - N/A   Clear
11:54 AM 84.9 °F 87.6 °F 66.9 °F 55% 29.95 in 10.0 mi North 6.9 mph - N/A   Clear
12:54 PM 84.9 °F 87.1 °F 66.0 °F 53% 29.93 in 10.0 mi Calm Calm - N/A   Scattered Clouds
1:54 PM 87.1 °F 88.9 °F 64.9 °F 48% 29.92 in 10.0 mi NNW 9.2 mph - N/A   Scattered Clouds
2:54 PM 88.0 °F 87.9 °F 61.0 °F 40% 29.91 in 10.0 mi Variable 5.8 mph - N/A   Scattered Clouds
3:54 PM 89.1 °F 90.0 °F 63.0 °F 42% 29.90 in 10.0 mi West 6.9 mph - N/A   Scattered Clouds
4:54 PM 88.0 °F 89.3 °F 64.0 °F 45% 29.90 in 10.0 mi WSW 6.9 mph - N/A   Scattered Clouds
5:54 PM 87.1 °F 87.8 °F 63.0 °F 44% 29.90 in 10.0 mi WSW 5.8 mph - N/A   Partly Cloudy
6:54 PM 86.0 °F 87.3 °F 64.0 °F 48% 29.89 in 10.0 mi WSW 5.8 mph - N/A   Partly Cloudy
7:54 PM 84.0 °F 85.8 °F 64.9 °F 53% 29.91 in 10.0 mi West 4.6 mph - N/A   Clear
8:54 PM 80.1 °F 82.9 °F 69.1 °F 69% 29.93 in 10.0 mi North 5.8 mph - N/A   Mostly Cloudy
9:54 PM 77.0 °F - 68.0 °F 74% 29.94 in 10.0 mi Calm Calm - N/A   Scattered Clouds
10:54 PM 75.9 °F - 68.0 °F 76% 29.94 in 10.0 mi NW 4.6 mph - N/A   Mostly Cloudy
11:54 PM 75.0 °F - 69.1 °F 82% 29.95 in 10.0 mi North 4.6 mph - N/A   Overcast